Year,Month,Day,Hour,Minute,Value (Times are PST for temperature in C)
2014,05,02,00,00,11.40
2014,05,02,00,01,11.40
2014,05,02,00,02,11.40
2014,05,02,00,03,11.40
2014,05,02,00,04,11.50
2014,05,02,00,05,11.60
2014,05,02,00,06,11.60
2014,05,02,00,07,11.60
2014,05,02,00,08,11.60
2014,05,02,00,09,11.60
2014,05,02,00,10,11.60
2014,05,02,00,11,11.60
2014,05,02,00,12,11.60
2014,05,02,00,13,11.60
2014,05,02,00,14,11.60
2014,05,02,00,15,11.60
2014,05,02,00,16,11.60
2014,05,02,00,17,11.60
2014,05,02,00,18,11.70
2014,05,02,00,19,11.70
2014,05,02,00,20,11.70
2014,05,02,00,21,11.70
2014,05,02,00,22,11.70
2014,05,02,00,23,11.70
2014,05,02,00,24,11.70
2014,05,02,00,25,11.70
2014,05,02,00,26,11.70
2014,05,02,00,27,11.70
2014,05,02,00,28,11.70
2014,05,02,00,29,11.70
2014,05,02,00,30,11.70
2014,05,02,00,31,11.70
2014,05,02,00,32,11.70
2014,05,02,00,33,11.70
2014,05,02,00,34,11.70
2014,05,02,00,35,11.70
2014,05,02,00,36,11.60
2014,05,02,00,37,11.60
2014,05,02,00,38,11.60
2014,05,02,00,39,11.60
2014,05,02,00,40,11.60
2014,05,02,00,41,11.60
2014,05,02,00,42,11.60
2014,05,02,00,43,11.60
2014,05,02,00,44,11.60
2014,05,02,00,45,11.60
2014,05,02,00,46,11.60
2014,05,02,00,47,11.60
2014,05,02,00,48,11.60
2014,05,02,00,49,11.60
2014,05,02,00,50,11.60
2014,05,02,00,51,11.60
2014,05,02,00,52,11.60
2014,05,02,00,53,11.60
2014,05,02,00,54,11.60
2014,05,02,00,55,11.60
2014,05,02,00,56,11.60
2014,05,02,00,57,11.60
2014,05,02,00,58,11.60
2014,05,02,00,59,11.60
2014,05,02,01,00,11.60
2014,05,02,01,01,11.70
2014,05,02,01,02,11.70
2014,05,02,01,03,11.70
2014,05,02,01,04,11.70
2014,05,02,01,05,11.70
2014,05,02,01,06,11.80
2014,05,02,01,07,11.80
2014,05,02,01,08,11.80
2014,05,02,01,09,11.80
2014,05,02,01,10,11.80
2014,05,02,01,11,11.80
2014,05,02,01,12,11.80
2014,05,02,01,13,11.80
2014,05,02,01,14,11.80
2014,05,02,01,15,11.80
2014,05,02,01,16,11.80
2014,05,02,01,17,11.80
2014,05,02,01,18,11.80
2014,05,02,01,19,11.80
2014,05,02,01,20,11.80
2014,05,02,01,21,11.80
2014,05,02,01,22,11.80
2014,05,02,01,23,11.80
2014,05,02,01,24,11.80
2014,05,02,01,25,11.80
2014,05,02,01,26,11.80
2014,05,02,01,27,11.80
2014,05,02,01,28,11.80
2014,05,02,01,29,11.80
2014,05,02,01,30,11.80
2014,05,02,01,31,11.80
2014,05,02,01,32,11.80
2014,05,02,01,33,11.80
2014,05,02,01,34,11.80
2014,05,02,01,35,11.80
2014,05,02,01,36,11.80
2014,05,02,01,37,11.80
2014,05,02,01,38,11.80
2014,05,02,01,39,11.80
2014,05,02,01,40,11.80
2014,05,02,01,41,11.80
2014,05,02,01,42,11.80
2014,05,02,01,43,11.80
2014,05,02,01,44,11.80
2014,05,02,01,45,11.90
2014,05,02,01,46,11.90
2014,05,02,01,47,12.00
2014,05,02,01,48,12.00
2014,05,02,01,49,12.10
2014,05,02,01,50,12.10
2014,05,02,01,51,12.10
2014,05,02,01,52,12.10
2014,05,02,01,53,12.10
2014,05,02,01,54,12.00
2014,05,02,01,55,12.10
2014,05,02,01,56,12.10
2014,05,02,01,57,12.10
2014,05,02,01,58,12.10
2014,05,02,01,59,12.10
2014,05,02,02,00,12.10
2014,05,02,02,01,12.10
2014,05,02,02,02,12.10
2014,05,02,02,03,12.20
2014,05,02,02,04,12.20
2014,05,02,02,05,12.20
2014,05,02,02,06,12.20
2014,05,02,02,07,12.10
2014,05,02,02,08,12.10
2014,05,02,02,09,12.10
2014,05,02,02,10,12.10
2014,05,02,02,11,12.20
2014,05,02,02,12,12.20
2014,05,02,02,13,12.20
2014,05,02,02,14,12.20
2014,05,02,02,15,12.10
2014,05,02,02,16,12.10
2014,05,02,02,17,12.10
2014,05,02,02,18,12.10
2014,05,02,02,19,12.10
2014,05,02,02,20,12.10
2014,05,02,02,21,12.00
2014,05,02,02,22,12.00
2014,05,02,02,23,12.00
2014,05,02,02,24,12.00
2014,05,02,02,25,11.90
2014,05,02,02,26,11.90
2014,05,02,02,27,11.90
2014,05,02,02,28,11.80
2014,05,02,02,29,11.80
2014,05,02,02,30,11.80
2014,05,02,02,31,11.80
2014,05,02,02,32,11.80
2014,05,02,02,33,11.80
2014,05,02,02,34,11.80
2014,05,02,02,35,11.80
2014,05,02,02,36,11.80
2014,05,02,02,37,11.80
2014,05,02,02,38,11.80
2014,05,02,02,39,11.80
2014,05,02,02,40,11.90
2014,05,02,02,41,11.90
2014,05,02,02,42,12.00
2014,05,02,02,43,12.00
2014,05,02,02,44,12.00
2014,05,02,02,45,12.00
2014,05,02,02,46,12.10
2014,05,02,02,47,12.10
2014,05,02,02,48,12.10
2014,05,02,02,49,12.10
2014,05,02,02,50,12.10
2014,05,02,02,51,12.00
2014,05,02,02,52,12.00
2014,05,02,02,53,12.00
2014,05,02,02,54,12.00
2014,05,02,02,55,11.90
2014,05,02,02,56,11.90
2014,05,02,02,57,11.90
2014,05,02,02,58,11.90
2014,05,02,02,59,11.80
2014,05,02,03,00,11.80
2014,05,02,03,01,11.80
2014,05,02,03,02,11.70
2014,05,02,03,03,11.70
2014,05,02,03,04,11.60
2014,05,02,03,05,11.60
2014,05,02,03,06,11.60
2014,05,02,03,07,11.60
2014,05,02,03,08,11.60
2014,05,02,03,09,11.60
2014,05,02,03,10,11.60
2014,05,02,03,11,11.60
2014,05,02,03,12,11.50
2014,05,02,03,13,11.40
2014,05,02,03,14,11.40
2014,05,02,03,15,11.40
2014,05,02,03,16,11.40
2014,05,02,03,17,11.40
2014,05,02,03,18,11.40
2014,05,02,03,19,11.40
2014,05,02,03,20,11.40
2014,05,02,03,21,11.40
2014,05,02,03,22,11.40
2014,05,02,03,23,11.40
2014,05,02,03,24,11.40
2014,05,02,03,25,11.40
2014,05,02,03,26,11.40
2014,05,02,03,27,11.40
2014,05,02,03,28,11.40
2014,05,02,03,29,11.40
2014,05,02,03,30,11.40
2014,05,02,03,31,11.40
2014,05,02,03,32,11.40
2014,05,02,03,33,11.40
2014,05,02,03,34,11.30
2014,05,02,03,35,11.30
2014,05,02,03,36,11.30
2014,05,02,03,37,11.30
2014,05,02,03,38,11.20
2014,05,02,03,39,11.20
2014,05,02,03,40,11.20
2014,05,02,03,41,11.20
2014,05,02,03,42,11.10
2014,05,02,03,43,11.10
2014,05,02,03,44,11.10
2014,05,02,03,45,11.10
2014,05,02,03,46,11.10
2014,05,02,03,47,11.10
2014,05,02,03,48,11.10
2014,05,02,03,49,11.10
2014,05,02,03,50,11.10
2014,05,02,03,51,11.10
2014,05,02,03,52,11.10
2014,05,02,03,53,11.10
2014,05,02,03,54,11.10
2014,05,02,03,55,11.10
2014,05,02,03,56,11.10
2014,05,02,03,57,11.10
2014,05,02,03,58,11.10
2014,05,02,03,59,11.10
2014,05,02,04,00,11.10
2014,05,02,04,01,11.10
2014,05,02,04,02,11.10
2014,05,02,04,03,11.10
2014,05,02,04,04,11.10
2014,05,02,04,05,11.10
2014,05,02,04,06,11.10
2014,05,02,04,07,11.00
2014,05,02,04,08,10.90
2014,05,02,04,09,10.90
2014,05,02,04,10,10.90
2014,05,02,04,11,10.90
2014,05,02,04,12,10.90
2014,05,02,04,13,10.90
2014,05,02,04,14,10.90
2014,05,02,04,15,10.90
2014,05,02,04,16,10.90
2014,05,02,04,17,10.90
2014,05,02,04,18,10.90
2014,05,02,04,19,10.90
2014,05,02,04,20,10.90
2014,05,02,04,21,10.90
2014,05,02,04,22,10.90
2014,05,02,04,23,10.90
2014,05,02,04,24,10.90
2014,05,02,04,25,10.90
2014,05,02,04,26,10.90
2014,05,02,04,27,10.90
2014,05,02,04,28,10.90
2014,05,02,04,29,10.90
2014,05,02,04,30,10.90
2014,05,02,04,31,10.90
2014,05,02,04,32,10.90
2014,05,02,04,33,10.90
2014,05,02,04,34,10.80
2014,05,02,04,35,10.80
2014,05,02,04,36,10.80
2014,05,02,04,37,10.70
2014,05,02,04,38,10.70
2014,05,02,04,39,10.70
2014,05,02,04,40,10.70
2014,05,02,04,41,10.70
2014,05,02,04,42,10.70
2014,05,02,04,43,10.70
2014,05,02,04,44,10.70
2014,05,02,04,45,10.70
2014,05,02,04,46,10.70
2014,05,02,04,47,10.70
2014,05,02,04,48,10.70
2014,05,02,04,49,10.70
2014,05,02,04,50,10.70
2014,05,02,04,51,10.70
2014,05,02,04,52,10.80
2014,05,02,04,53,10.80
2014,05,02,04,54,10.80
2014,05,02,04,55,10.80
2014,05,02,04,56,10.80
2014,05,02,04,57,10.80
2014,05,02,04,58,10.90
2014,05,02,04,59,10.80
2014,05,02,05,00,10.80
2014,05,02,05,01,10.80
2014,05,02,05,02,10.80
2014,05,02,05,03,10.80
2014,05,02,05,04,11.00
2014,05,02,05,05,11.10
2014,05,02,05,06,11.20
2014,05,02,05,07,11.40
2014,05,02,05,08,11.60
2014,05,02,05,09,11.70
2014,05,02,05,10,11.70
2014,05,02,05,11,11.70
2014,05,02,05,12,11.60
2014,05,02,05,13,11.60
2014,05,02,05,14,11.70
2014,05,02,05,15,11.80
2014,05,02,05,16,11.80
2014,05,02,05,17,12.00
2014,05,02,05,18,12.30
2014,05,02,05,19,12.70
2014,05,02,05,20,13.20
2014,05,02,05,21,13.70
2014,05,02,05,22,14.20
2014,05,02,05,23,14.60
2014,05,02,05,24,15.00
2014,05,02,05,25,15.30
2014,05,02,05,26,15.70
2014,05,02,05,27,16.00
2014,05,02,05,28,16.40
2014,05,02,05,29,16.60
2014,05,02,05,30,16.80
2014,05,02,05,31,17.00
2014,05,02,05,32,17.00
2014,05,02,05,33,17.10
2014,05,02,05,34,17.20
2014,05,02,05,35,17.30
2014,05,02,05,36,17.30
2014,05,02,05,37,17.30
2014,05,02,05,38,17.30
2014,05,02,05,39,17.40
2014,05,02,05,40,17.40
2014,05,02,05,41,17.40
2014,05,02,05,42,17.40
2014,05,02,05,43,17.40
2014,05,02,05,44,17.40
2014,05,02,05,45,17.40
2014,05,02,05,46,17.40
2014,05,02,05,47,17.40
2014,05,02,05,48,17.40
2014,05,02,05,49,17.30
2014,05,02,05,50,17.30
2014,05,02,05,51,17.30
2014,05,02,05,52,17.30
2014,05,02,05,53,17.30
2014,05,02,05,54,17.20
2014,05,02,05,55,17.20
2014,05,02,05,56,17.20
2014,05,02,05,57,17.20
2014,05,02,05,58,17.10
2014,05,02,05,59,17.10
2014,05,02,06,00,17.10
2014,05,02,06,01,17.00
2014,05,02,06,02,17.00
2014,05,02,06,03,17.00
2014,05,02,06,04,16.90
2014,05,02,06,05,16.90
2014,05,02,06,06,16.90
2014,05,02,06,07,16.90
2014,05,02,06,08,16.90
2014,05,02,06,09,16.90
2014,05,02,06,10,16.80
2014,05,02,06,11,16.80
2014,05,02,06,12,16.80
2014,05,02,06,13,16.70
2014,05,02,06,14,16.70
2014,05,02,06,15,16.70
2014,05,02,06,16,16.70
2014,05,02,06,17,16.70
2014,05,02,06,18,16.70
2014,05,02,06,19,16.70
2014,05,02,06,20,16.70
2014,05,02,06,21,16.70
2014,05,02,06,22,16.70
2014,05,02,06,23,16.70
2014,05,02,06,24,16.70
2014,05,02,06,25,16.70
2014,05,02,06,26,16.60
2014,05,02,06,27,16.60
2014,05,02,06,28,16.60
2014,05,02,06,29,16.60
2014,05,02,06,30,16.50
2014,05,02,06,31,16.40
2014,05,02,06,32,16.40
2014,05,02,06,33,16.40
2014,05,02,06,34,16.40
2014,05,02,06,35,16.40
2014,05,02,06,36,16.30
2014,05,02,06,37,16.20
2014,05,02,06,38,16.20
2014,05,02,06,39,16.20
2014,05,02,06,40,16.10
2014,05,02,06,41,16.10
2014,05,02,06,42,16.10
2014,05,02,06,43,16.10
2014,05,02,06,44,16.10
2014,05,02,06,45,16.10
2014,05,02,06,46,16.00
2014,05,02,06,47,15.90
2014,05,02,06,48,15.90
2014,05,02,06,49,15.90
2014,05,02,06,50,15.80
2014,05,02,06,51,15.80
2014,05,02,06,52,15.80
2014,05,02,06,53,15.80
2014,05,02,06,54,15.80
2014,05,02,06,55,15.80
2014,05,02,06,56,15.80
2014,05,02,06,57,15.80
2014,05,02,06,58,15.80
2014,05,02,06,59,15.70
2014,05,02,07,00,15.70
2014,05,02,07,01,15.70
2014,05,02,07,02,15.70
2014,05,02,07,03,15.60
2014,05,02,07,04,15.60
2014,05,02,07,05,15.60
2014,05,02,07,06,15.60
2014,05,02,07,07,15.60
2014,05,02,07,08,15.50
2014,05,02,07,09,15.50
2014,05,02,07,10,15.50
2014,05,02,07,11,15.50
2014,05,02,07,12,15.50
2014,05,02,07,13,15.50
2014,05,02,07,14,15.40
2014,05,02,07,15,15.40
2014,05,02,07,16,15.40
2014,05,02,07,17,15.40
2014,05,02,07,18,15.40
2014,05,02,07,19,15.40
2014,05,02,07,20,15.40
2014,05,02,07,21,15.40
2014,05,02,07,22,15.40
2014,05,02,07,23,15.30
2014,05,02,07,24,15.30
2014,05,02,07,25,15.30
2014,05,02,07,26,15.30
2014,05,02,07,27,15.30
2014,05,02,07,28,15.30
2014,05,02,07,29,15.30
2014,05,02,07,30,15.30
2014,05,02,07,31,15.30
2014,05,02,07,32,15.20
2014,05,02,07,33,15.20
2014,05,02,07,34,15.20
2014,05,02,07,35,15.20
2014,05,02,07,36,15.20
2014,05,02,07,37,15.10
2014,05,02,07,38,15.10
2014,05,02,07,39,15.00
2014,05,02,07,40,15.00
2014,05,02,07,41,14.90
2014,05,02,07,42,14.90
2014,05,02,07,43,14.80
2014,05,02,07,44,14.80
2014,05,02,07,45,14.70
2014,05,02,07,46,14.70
2014,05,02,07,47,14.70
2014,05,02,07,48,14.60
2014,05,02,07,49,14.60
2014,05,02,07,50,14.60
2014,05,02,07,51,14.70
2014,05,02,07,52,14.60
2014,05,02,07,53,14.60
2014,05,02,07,54,14.60
2014,05,02,07,55,14.70
2014,05,02,07,56,14.70
2014,05,02,07,57,14.70
2014,05,02,07,58,14.70
2014,05,02,07,59,14.70
2014,05,02,08,00,14.70
2014,05,02,08,01,14.60
2014,05,02,08,02,14.60
2014,05,02,08,03,14.70
2014,05,02,08,04,14.70
2014,05,02,08,05,14.70
2014,05,02,08,06,14.70
2014,05,02,08,07,14.70
2014,05,02,08,08,14.80
2014,05,02,08,09,14.80
2014,05,02,08,10,14.80
2014,05,02,08,11,14.80
2014,05,02,08,12,14.80
2014,05,02,08,13,14.80
2014,05,02,08,14,14.80
2014,05,02,08,15,14.80
2014,05,02,08,16,14.80
2014,05,02,08,17,14.90
2014,05,02,08,18,14.90
2014,05,02,08,19,14.90
2014,05,02,08,20,14.90
2014,05,02,08,21,14.90
2014,05,02,08,22,14.90
2014,05,02,08,23,14.90
2014,05,02,08,24,15.00
2014,05,02,08,25,15.00
2014,05,02,08,26,15.00
2014,05,02,08,27,15.00
2014,05,02,08,28,15.00
2014,05,02,08,29,15.00
2014,05,02,08,30,15.10
2014,05,02,08,31,15.10
2014,05,02,08,32,15.10
2014,05,02,08,33,15.10
2014,05,02,08,34,15.10
2014,05,02,08,35,15.10
2014,05,02,08,36,15.10
2014,05,02,08,37,15.20
2014,05,02,08,38,15.20
2014,05,02,08,39,15.20
2014,05,02,08,40,15.20
2014,05,02,08,41,15.20
2014,05,02,08,42,15.20
2014,05,02,08,43,15.20
2014,05,02,08,44,15.20
2014,05,02,08,45,15.20
2014,05,02,08,46,15.20
2014,05,02,08,47,15.20
2014,05,02,08,48,15.20
2014,05,02,08,49,15.20
2014,05,02,08,50,15.30
2014,05,02,08,51,15.30
2014,05,02,08,52,15.30
2014,05,02,08,53,15.30
2014,05,02,08,54,15.30
2014,05,02,08,55,15.30
2014,05,02,08,56,15.30
2014,05,02,08,57,15.30
2014,05,02,08,58,15.30
2014,05,02,08,59,15.30
2014,05,02,09,00,15.30
2014,05,02,09,01,15.30
2014,05,02,09,02,15.30
2014,05,02,09,03,15.30
2014,05,02,09,04,15.30
2014,05,02,09,05,15.30
2014,05,02,09,06,15.30
2014,05,02,09,07,15.30
2014,05,02,09,08,15.30
2014,05,02,09,09,15.30
2014,05,02,09,10,15.30
2014,05,02,09,11,15.20
2014,05,02,09,12,15.20
2014,05,02,09,13,15.20
2014,05,02,09,14,15.30
2014,05,02,09,15,15.30
2014,05,02,09,16,15.30
2014,05,02,09,17,15.30
2014,05,02,09,18,15.30
2014,05,02,09,19,15.30
2014,05,02,09,20,15.40
2014,05,02,09,21,15.40
2014,05,02,09,22,15.50
2014,05,02,09,23,15.50
2014,05,02,09,24,15.60
2014,05,02,09,25,15.60
2014,05,02,09,26,15.70
2014,05,02,09,27,15.70
2014,05,02,09,28,15.80
2014,05,02,09,29,15.80
2014,05,02,09,30,15.90
2014,05,02,09,31,15.90
2014,05,02,09,32,16.00
2014,05,02,09,33,16.10
2014,05,02,09,34,16.10
2014,05,02,09,35,16.20
2014,05,02,09,36,16.20
2014,05,02,09,37,16.30
2014,05,02,09,38,16.30
2014,05,02,09,39,16.40
2014,05,02,09,40,16.40
2014,05,02,09,41,16.40
2014,05,02,09,42,16.40
2014,05,02,09,43,16.50
2014,05,02,09,44,16.70
2014,05,02,09,45,16.70
2014,05,02,09,46,16.70
2014,05,02,09,47,16.70
2014,05,02,09,48,16.70
2014,05,02,09,49,16.70
2014,05,02,09,50,16.70
2014,05,02,09,51,16.70
2014,05,02,09,52,16.70
2014,05,02,09,53,16.70
2014,05,02,09,54,16.60
2014,05,02,09,55,16.60
2014,05,02,09,56,16.40
2014,05,02,09,57,16.40
2014,05,02,09,58,16.40
2014,05,02,09,59,16.40
2014,05,02,10,00,16.30
2014,05,02,10,01,16.20
2014,05,02,10,02,16.10
2014,05,02,10,03,16.10
2014,05,02,10,04,16.10
2014,05,02,10,05,16.10
2014,05,02,10,06,15.90
2014,05,02,10,07,15.90
2014,05,02,10,08,16.00
2014,05,02,10,09,16.10
2014,05,02,10,10,16.10
2014,05,02,10,11,16.10
2014,05,02,10,12,16.10
2014,05,02,10,13,16.20
2014,05,02,10,14,16.20
2014,05,02,10,15,16.20
2014,05,02,10,16,16.20
2014,05,02,10,17,16.20
2014,05,02,10,18,16.20
2014,05,02,10,19,16.20
2014,05,02,10,20,16.20
2014,05,02,10,21,16.20
2014,05,02,10,22,16.30
2014,05,02,10,23,16.30
2014,05,02,10,24,16.30
2014,05,02,10,25,16.40
2014,05,02,10,26,16.40
2014,05,02,10,27,16.40
2014,05,02,10,28,16.40
2014,05,02,10,29,16.60
2014,05,02,10,30,16.60
2014,05,02,10,31,16.60
2014,05,02,10,32,16.60
2014,05,02,10,33,16.70
2014,05,02,10,34,16.70
2014,05,02,10,35,16.70
2014,05,02,10,36,16.70
2014,05,02,10,37,16.70
2014,05,02,10,38,16.70
2014,05,02,10,39,16.70
2014,05,02,10,40,16.70
2014,05,02,10,41,16.70
2014,05,02,10,42,16.70
2014,05,02,10,43,16.70
2014,05,02,10,44,16.70
2014,05,02,10,45,16.70
2014,05,02,10,46,16.70
2014,05,02,10,47,16.60
2014,05,02,10,48,16.60
2014,05,02,10,49,16.60
2014,05,02,10,50,16.60
2014,05,02,10,51,16.60
2014,05,02,10,52,16.60
2014,05,02,10,53,16.60
2014,05,02,10,54,16.60
2014,05,02,10,55,16.60
2014,05,02,10,56,16.60
2014,05,02,10,57,16.60
2014,05,02,10,58,16.60
2014,05,02,10,59,16.50
2014,05,02,11,00,16.40
2014,05,02,11,01,16.40
2014,05,02,11,02,16.40
2014,05,02,11,03,16.40
2014,05,02,11,04,16.40
2014,05,02,11,05,16.40
2014,05,02,11,06,16.40
2014,05,02,11,07,16.40
2014,05,02,11,08,16.40
2014,05,02,11,09,16.40
2014,05,02,11,10,16.40
2014,05,02,11,11,16.60
2014,05,02,11,12,16.60
2014,05,02,11,13,16.60
2014,05,02,11,14,16.60
2014,05,02,11,15,16.60
2014,05,02,11,16,16.60
2014,05,02,11,17,16.60
2014,05,02,11,18,16.60
2014,05,02,11,19,16.60
2014,05,02,11,20,16.60
2014,05,02,11,21,16.60
2014,05,02,11,22,16.60
2014,05,02,11,23,16.70
2014,05,02,11,24,16.70
2014,05,02,11,25,16.70
2014,05,02,11,26,16.80
2014,05,02,11,27,16.80
2014,05,02,11,28,16.90
2014,05,02,11,29,17.00
2014,05,02,11,30,17.00
2014,05,02,11,31,17.00
2014,05,02,11,32,17.00
2014,05,02,11,33,17.00
2014,05,02,11,34,17.00
2014,05,02,11,35,17.00
2014,05,02,11,36,17.10
2014,05,02,11,37,17.20
2014,05,02,11,38,17.20
2014,05,02,11,39,17.20
2014,05,02,11,40,17.30
2014,05,02,11,41,17.30
2014,05,02,11,42,17.30
2014,05,02,11,43,17.20
2014,05,02,11,44,17.20
2014,05,02,11,45,17.10
2014,05,02,11,46,17.00
2014,05,02,11,47,16.90
2014,05,02,11,48,16.90
2014,05,02,11,49,16.80
2014,05,02,11,50,16.70
2014,05,02,11,51,16.70
2014,05,02,11,52,16.70
2014,05,02,11,53,16.80
2014,05,02,11,54,16.80
2014,05,02,11,55,16.70
2014,05,02,11,56,16.70
2014,05,02,11,57,16.70
2014,05,02,11,58,16.70
2014,05,02,11,59,16.70
2014,05,02,12,00,16.70
2014,05,02,12,01,16.70
2014,05,02,12,02,16.70
2014,05,02,12,03,16.70
2014,05,02,12,04,16.60
2014,05,02,12,05,16.50
2014,05,02,12,06,16.40
2014,05,02,12,07,16.40
2014,05,02,12,08,16.50
2014,05,02,12,09,16.60
2014,05,02,12,10,16.60
2014,05,02,12,11,16.60
2014,05,02,12,12,16.50
2014,05,02,12,13,16.40
2014,05,02,12,14,16.40
2014,05,02,12,15,16.40
2014,05,02,12,16,16.40
2014,05,02,12,17,16.40
2014,05,02,12,18,16.40
2014,05,02,12,19,16.50
2014,05,02,12,20,16.60
2014,05,02,12,21,16.60
2014,05,02,12,22,16.60
2014,05,02,12,23,16.70
2014,05,02,12,24,16.60
2014,05,02,12,25,16.60
2014,05,02,12,26,16.70
2014,05,02,12,27,16.70
2014,05,02,12,28,16.60
2014,05,02,12,29,16.60
2014,05,02,12,30,16.70
2014,05,02,12,31,16.70
2014,05,02,12,32,16.70
2014,05,02,12,33,16.80
2014,05,02,12,34,16.90
2014,05,02,12,35,16.90
2014,05,02,12,36,17.00
2014,05,02,12,37,16.90
2014,05,02,12,38,16.90
2014,05,02,12,39,17.00
2014,05,02,12,40,16.90
2014,05,02,12,41,17.00
2014,05,02,12,42,17.00
2014,05,02,12,43,17.20
2014,05,02,12,44,17.20
2014,05,02,12,45,17.20
2014,05,02,12,46,17.10
2014,05,02,12,47,17.10
2014,05,02,12,48,17.00
2014,05,02,12,49,17.00
2014,05,02,12,50,16.90
2014,05,02,12,51,16.90
2014,05,02,12,52,16.90
2014,05,02,12,53,16.90
2014,05,02,12,54,16.80
2014,05,02,12,55,16.70
2014,05,02,12,56,16.70
2014,05,02,12,57,16.70
2014,05,02,12,58,16.60
2014,05,02,12,59,16.50
2014,05,02,13,00,16.40
2014,05,02,13,01,16.40
2014,05,02,13,02,16.40
2014,05,02,13,03,16.50
2014,05,02,13,04,16.60
2014,05,02,13,05,16.70
2014,05,02,13,06,16.70
2014,05,02,13,07,16.70
2014,05,02,13,08,16.70
2014,05,02,13,09,16.60
2014,05,02,13,10,16.60
2014,05,02,13,11,16.70
2014,05,02,13,12,16.70
2014,05,02,13,13,16.70
2014,05,02,13,14,16.70
2014,05,02,13,15,16.70
2014,05,02,13,16,16.70
2014,05,02,13,17,16.70
2014,05,02,13,18,16.60
2014,05,02,13,19,16.60
2014,05,02,13,20,16.60
2014,05,02,13,21,16.60
2014,05,02,13,22,16.60
2014,05,02,13,23,16.60
2014,05,02,13,24,16.60
2014,05,02,13,25,16.60
2014,05,02,13,26,16.50
2014,05,02,13,27,16.40
2014,05,02,13,28,16.40
2014,05,02,13,29,16.40
2014,05,02,13,30,16.30
2014,05,02,13,31,16.30
2014,05,02,13,32,16.30
2014,05,02,13,33,16.30
2014,05,02,13,34,16.30
2014,05,02,13,35,16.30
2014,05,02,13,36,16.30
2014,05,02,13,37,16.30
2014,05,02,13,38,16.30
2014,05,02,13,39,16.20
2014,05,02,13,40,16.20
2014,05,02,13,41,16.20
2014,05,02,13,42,16.20
2014,05,02,13,43,16.20
2014,05,02,13,44,16.20
2014,05,02,13,45,16.10
2014,05,02,13,46,16.10
2014,05,02,13,47,16.10
2014,05,02,13,48,16.10
2014,05,02,13,49,16.10
2014,05,02,13,50,16.10
2014,05,02,13,51,16.10
2014,05,02,13,52,16.10
2014,05,02,13,53,16.10
2014,05,02,13,54,16.00
2014,05,02,13,55,15.90
2014,05,02,13,56,15.90
2014,05,02,13,57,15.80
2014,05,02,13,58,15.80
2014,05,02,13,59,15.80
2014,05,02,14,00,15.80
2014,05,02,14,01,15.80
2014,05,02,14,02,15.80
2014,05,02,14,03,15.80
2014,05,02,14,04,15.80
2014,05,02,14,05,15.80
2014,05,02,14,06,15.80
2014,05,02,14,07,15.80
2014,05,02,14,08,15.80
2014,05,02,14,09,15.80
2014,05,02,14,10,15.80
2014,05,02,14,11,15.80
2014,05,02,14,12,15.70
2014,05,02,14,13,15.70
2014,05,02,14,14,15.70
2014,05,02,14,15,15.70
2014,05,02,14,16,15.80
2014,05,02,14,17,15.80
2014,05,02,14,18,15.80
2014,05,02,14,19,15.80
2014,05,02,14,20,15.80
2014,05,02,14,21,15.80
2014,05,02,14,22,15.80
2014,05,02,14,23,15.80
2014,05,02,14,24,15.80
2014,05,02,14,25,15.80
2014,05,02,14,26,15.70
2014,05,02,14,27,15.70
2014,05,02,14,28,15.70
2014,05,02,14,29,15.70
2014,05,02,14,30,15.70
2014,05,02,14,31,15.70
2014,05,02,14,32,15.70
2014,05,02,14,33,15.70
2014,05,02,14,34,15.70
2014,05,02,14,35,15.70
2014,05,02,14,36,15.70
2014,05,02,14,37,15.70
2014,05,02,14,38,15.70
2014,05,02,14,39,15.70
2014,05,02,14,40,15.70
2014,05,02,14,41,15.70
2014,05,02,14,42,15.60
2014,05,02,14,43,15.60
2014,05,02,14,44,15.70
2014,05,02,14,45,15.70
2014,05,02,14,46,15.70
2014,05,02,14,47,15.70
2014,05,02,14,48,15.60
2014,05,02,14,49,15.60
2014,05,02,14,50,15.60
2014,05,02,14,51,15.50
2014,05,02,14,52,15.50
2014,05,02,14,53,15.50
2014,05,02,14,54,15.50
2014,05,02,14,55,15.50
2014,05,02,14,56,15.50
2014,05,02,14,57,15.50
2014,05,02,14,58,15.50
2014,05,02,14,59,15.50
2014,05,02,15,00,15.50
2014,05,02,15,01,15.60
2014,05,02,15,02,15.60
2014,05,02,15,03,15.70
2014,05,02,15,04,15.70
2014,05,02,15,05,15.80
2014,05,02,15,06,15.80
2014,05,02,15,07,15.80
2014,05,02,15,08,15.80
2014,05,02,15,09,15.80
2014,05,02,15,10,15.80
2014,05,02,15,11,15.80
2014,05,02,15,12,15.90
2014,05,02,15,13,15.90
2014,05,02,15,14,15.90
2014,05,02,15,15,15.90
2014,05,02,15,16,15.90
2014,05,02,15,17,15.90
2014,05,02,15,18,16.00
2014,05,02,15,19,16.10
2014,05,02,15,20,16.00
2014,05,02,15,21,15.90
2014,05,02,15,22,15.90
2014,05,02,15,23,15.90
2014,05,02,15,24,15.90
2014,05,02,15,25,16.00
2014,05,02,15,26,16.00
2014,05,02,15,27,15.90
2014,05,02,15,28,15.90
2014,05,02,15,29,16.00
2014,05,02,15,30,16.00
2014,05,02,15,31,15.90
2014,05,02,15,32,15.90
2014,05,02,15,33,15.90
2014,05,02,15,34,15.90
2014,05,02,15,35,15.80
2014,05,02,15,36,15.80
2014,05,02,15,37,15.80
2014,05,02,15,38,15.80
2014,05,02,15,39,15.80
2014,05,02,15,40,15.80
2014,05,02,15,41,15.80
2014,05,02,15,42,15.80
2014,05,02,15,43,15.80
2014,05,02,15,44,15.80
2014,05,02,15,45,15.80
2014,05,02,15,46,15.90
2014,05,02,15,47,15.90
2014,05,02,15,48,16.00
2014,05,02,15,49,16.10
2014,05,02,15,50,16.10
2014,05,02,15,51,16.10
2014,05,02,15,52,16.10
2014,05,02,15,53,16.10
2014,05,02,15,54,16.10
2014,05,02,15,55,16.10
2014,05,02,15,56,16.10
2014,05,02,15,57,16.10
2014,05,02,15,58,16.10
2014,05,02,15,59,16.10
2014,05,02,16,00,16.10
2014,05,02,16,01,16.10
2014,05,02,16,02,16.10
2014,05,02,16,03,16.10
2014,05,02,16,04,16.10
2014,05,02,16,05,16.10
2014,05,02,16,06,16.10
2014,05,02,16,07,16.10
2014,05,02,16,08,16.10
2014,05,02,16,09,16.10
2014,05,02,16,10,16.00
2014,05,02,16,11,15.90
2014,05,02,16,12,15.90
2014,05,02,16,13,15.90
2014,05,02,16,14,15.90
2014,05,02,16,15,15.90
2014,05,02,16,16,15.90
2014,05,02,16,17,15.90
2014,05,02,16,18,15.80
2014,05,02,16,19,15.80
2014,05,02,16,20,15.80
2014,05,02,16,21,15.80
2014,05,02,16,22,15.80
2014,05,02,16,23,15.80
2014,05,02,16,24,15.80
2014,05,02,16,25,15.80
2014,05,02,16,26,15.80
2014,05,02,16,27,15.80
2014,05,02,16,28,15.80
2014,05,02,16,29,15.80
2014,05,02,16,30,15.80
2014,05,02,16,31,15.80
2014,05,02,16,32,15.80
2014,05,02,16,33,15.80
2014,05,02,16,34,15.80
2014,05,02,16,35,15.80
2014,05,02,16,36,15.80
2014,05,02,16,37,15.80
2014,05,02,16,38,15.80
2014,05,02,16,39,15.80
2014,05,02,16,40,15.80
2014,05,02,16,41,15.80
2014,05,02,16,42,15.80
2014,05,02,16,43,15.80
2014,05,02,16,44,15.80
2014,05,02,16,45,15.80
2014,05,02,16,46,15.80
2014,05,02,16,47,15.80
2014,05,02,16,48,15.80
2014,05,02,16,49,15.80
2014,05,02,16,50,15.80
2014,05,02,16,51,15.80
2014,05,02,16,52,15.80
2014,05,02,16,53,15.90
2014,05,02,16,54,15.90
2014,05,02,16,55,15.90
2014,05,02,16,56,16.00
2014,05,02,16,57,16.10
2014,05,02,16,58,16.10
2014,05,02,16,59,16.10
2014,05,02,17,00,16.00
2014,05,02,17,01,15.90
2014,05,02,17,02,15.90
2014,05,02,17,03,15.90
2014,05,02,17,04,15.90
2014,05,02,17,05,15.80
2014,05,02,17,06,15.80
2014,05,02,17,07,15.80
2014,05,02,17,08,15.80
2014,05,02,17,09,15.80
2014,05,02,17,10,15.80
2014,05,02,17,11,15.80
2014,05,02,17,12,15.80
2014,05,02,17,13,15.80
2014,05,02,17,14,15.80
2014,05,02,17,15,15.80
2014,05,02,17,16,15.70
2014,05,02,17,17,15.70
2014,05,02,17,18,15.70
2014,05,02,17,19,15.70